[[{"header":{"parameterUnit":"m.s-1","parameterCategory":1,"la1":30.2991,"la2":30.254,"lo1":-89.0895,"lo2":-89.0444,"dy":0.0017,"dx":0.0017,"nx":28,"ny":28,"refTime":"2024-05-21T09:00:00:Z","depth":0,"parameterNumber":2,"parameterNumberName":"U-component_of_WINDS"},"data":[0,0,0,0,0,0,0,0,0,0,0,0,0,0,0,0,0,0,0,0,0,0,0,0,0,0,0,0,0,0,0,0,0,0,0,0,0,0,0,0,0,0,0,0,0,0,0,0,0,0,0,0,0,0,0,0,0,0,0.2678,0.2678,0,0.2693,0.2694,0.2694,0.2692,0.2692,0.2692,0.2692,0.2706,0.2707,0.2707,0,0,0,0,0,0,0,0,0,0,0,0,0,0.2644,0.2645,0.2678,0.2678,0.2678,0.2693,0.2694,0.2694,0.2693,0.2692,0.2692,0.2692,0.2706,0.2707,0.2707,0,0,0,0,0,0,0,0,0,0,0,0,0,0.2659,0.2645,0.2678,0.2679,0.268,0.2693,0.2694,0.2694,0.2693,0.2692,0.2692,0.2692,0.2706,0.2706,0.2707,0.272,0,0,0.271,0.2711,0,0,0,0,0,0,0,0,0.2658,0.266,0.2679,0.2679,0.268,0.2691,0.2687,0.2703,0.2693,0.2688,0.2692,0.2691,0.2701,0.2702,0.2706,0.2721,0.2721,0.271,0.2711,0.2711,0.2711,0,0,0,0,0,0,0,0.2657,0.266,0.2684,0.2679,0.268,0.2678,0.268,0.269,0.2696,0.2688,0.2688,0.269,0.2701,0.2705,0.2706,0.2721,0.271,0.2711,0.2712,0.2712,0.2746,0.2746,0,0,0,0,0,0,0.2656,0.2659,0.2683,0.2684,0.2668,0.2679,0.2681,0.2687,0.2696,0.2697,0.269,0.269,0.2704,0.2705,0.2707,0.2721,0.2711,0.2712,0.2712,0.2746,0.2746,0.2746,0,0,0,0,0,0,0.2655,0.2658,0.2683,0.2672,0.2675,0.268,0.2687,0.2688,0.2692,0.2698,0.2699,0.2693,0.2704,0.2706,0.2717,0.2722,0.2712,0.2713,0.2745,0.2746,0.2746,0.2751,0,0,0,0,0,0,0.2654,0.2658,0.2664,0.2672,0.2675,0.2693,0.2688,0.2689,0.2694,0.2693,0.2701,0.2702,0.2703,0.2715,0.2717,0.2723,0.2714,0.2745,0.2745,0.2746,0.275,0.2752,0.2753,0,0,0,0,0,0.2653,0.2664,0.2664,0.2667,0.2682,0.2693,0.2695,0.2698,0.2694,0.2699,0.2703,0.2701,0.2721,0.2716,0.2719,0.2725,0.2744,0.2745,0.2746,0.275,0.2751,0.2753,0,0,0,0,0,0,0.2656,0.2665,0.2665,0.2679,0.2685,0.2693,0.27,0.2699,0.2706,0.2706,0.2708,0.2709,0.272,0.2724,0.2718,0.2737,0.2732,0.2733,0.2734,0.2736,0.2737,0.2735,0.2715,0,0,0,0,0,0.2658,0.2667,0.2674,0.2686,0.2689,0.2694,0.2699,0.27,0.2706,0.2709,0.2713,0.2719,0.2727,0.2731,0.2739,0.2751,0.2752,0.2756,0.2757,0.2758,0.2759,0.2765,0.2766,0.2749,0.2749,0.2749,0,0,0.2663,0.2669,0.2674,0.2687,0.2692,0.27,0.2696,0.2705,0.2711,0.271,0.2721,0.2724,0.2731,0.2742,0.2747,0.2745,0.2764,0.2759,0.276,0.276,0.2766,0.2767,0.2769,0.275,0.275,0.2749,0,0,0.2675,0.2681,0.2691,0.2696,0.2704,0.2707,0.2709,0.2717,0.2719,0.273,0.2729,0.2736,0.2749,0.2753,0.2757,0.2771,0.2769,0.2773,0.2779,0.2785,0.2786,0.2787,0.2791,0.2793,0.2774,0.2774,0.2774,0,0.268,0.2693,0.2696,0.2705,0.271,0.271,0.2719,0.2724,0.2734,0.2737,0.2734,0.275,0.2754,0.2767,0.277,0.2773,0.2775,0.2772,0.2786,0.2787,0.2788,0.2792,0.2793,0.2774,0.2774,0.2774,0.2774,0,0.2698,0.2707,0.2714,0.2723,0.2729,0.2738,0.2742,0.2747,0.2748,0.275,0.2761,0.2766,0.2774,0.2777,0.2778,0.2789,0.2787,0.2785,0.2781,0.279,0.2793,0.2795,0.2775,0.2775,0.2775,0.2775,0,0,0.2712,0.2723,0.2726,0.273,0.2738,0.2745,0.2753,0.2762,0.2766,0.2772,0.2779,0.2789,0.2787,0.2792,0.2793,0.2798,0.2807,0.2795,0.2795,0.2797,0.2819,0.282,0.2821,0.2807,0.2807,0.2807,0.2818,0,0.2725,0.2741,0.2744,0.2758,0.2765,0.2765,0.2773,0.2778,0.2781,0.2787,0.279,0.2797,0.2794,0.2797,0.2802,0.2805,0.2811,0.2804,0.2812,0.2812,0.281,0.2823,0.2825,0.2835,0.2819,0.282,0.282,0,0.2742,0.2749,0.2764,0.2771,0.2774,0.2781,0.2788,0.2794,0.28,0.2802,0.2806,0.2807,0.2815,0.281,0.2821,0.2816,0.2819,0.2821,0.2821,0.2821,0.2816,0.2823,0.2838,0.2839,0.2822,0.2822,0.2822,0,0.275,0.2764,0.2774,0.2777,0.2786,0.279,0.2794,0.2799,0.2804,0.281,0.2812,0.2819,0.2823,0.2828,0.2829,0.2826,0.284,0.2835,0.284,0.284,0.2843,0.2842,0.2857,0.2846,0.2846,0.2846,0.2846,0,0.2764,0.2773,0.2777,0.2784,0.2793,0.2796,0.2805,0.2808,0.2813,0.2819,0.2819,0.2825,0.2827,0.2833,0.2834,0.2842,0.2844,0.2845,0.2845,0.2845,0.2844,0.2846,0.2845,0.2846,0.2846,0.2846,0.2846,0,0.2774,0.2778,0.2789,0.2796,0.2798,0.2804,0.281,0.2815,0.2818,0.2826,0.2828,0.2832,0.2838,0.2841,0.2849,0.285,0.2859,0.2859,0.2857,0.2857,0.2862,0.2861,0.2878,0.288,0.2868,0.2868,0.2868,0,0.2783,0.2789,0.2797,0.2801,0.2805,0.2812,0.2816,0.2819,0.2823,0.283,0.2835,0.2842,0.2847,0.2858,0.2861,0.2867,0.2867,0.2872,0.2867,0.2866,0.2866,0.2865,0.2865,0.2873,0.2873,0.2873,0.2873,0,0.2796,0.2798,0.2804,0.2812,0.2817,0.2823,0.2828,0.2832,0.2835,0.284,0.2847,0.2851,0.286,0.2866,0.2872,0.2875,0.2874,0.2875,0.2876,0.2875,0.2874,0.2874,0.2859,0.2874,0.2874,0.2874,0.2874,0.2874,0.2805,0.2811,0.2817,0.2824,0.2828,0.2833,0.2839,0.2842,0.2848,0.2855,0.2856,0.2864,0.2869,0.2877,0.288,0.2885,0.2884,0.2886,0.2886,0.2887,0.2887,0.2873,0.2886,0.2886,0.2886,0.2886,0.2886,0,0.2818,0.2822,0.2829,0.2836,0.2842,0.2841,0.2847,0.2852,0.2858,0.2863,0.2869,0.2876,0.2882,0.2886,0.2892,0.2895,0.2895,0.2897,0.2896,0.2897,0.2888,0.2886,0.2897,0.2897,0.2897,0.2897,0.2897,0.2897,0.2825,0.2835,0.2837,0.2847,0.2851,0.2859,0.2862,0.2866,0.287,0.2879,0.2884,0.2886,0.2891,0.2897,0.2902,0.2903,0.2905,0.2906,0.2907,0.2899,0.2897,0.2896,0.2894,0.2907,0.2907,0.2915,0.2915,0.2915]},{"header":{"parameterUnit":"m.s-1","parameterCategory":1,"la1":30.2991,"la2":30.254,"lo1":-89.0895,"lo2":-89.0444,"dy":0.0017,"dx":0.0017,"nx":28,"ny":28,"refTime":"2024-05-21T09:00:00:Z","depth":0,"parameterNumber":3,"parameterNumberName":"V-component_of_WINDS"},"data":[0,0,0,0,0,0,0,0,0,0,0,0,0,0,0,0,0,0,0,0,0,0,0,0,0,0,0,0,0,0,0,0,0,0,0,0,0,0,0,0,0,0,0,0,0,0,0,0,0,0,0,0,0,0,0,0,0,0,2.6645,2.6646,0,2.6756,2.6757,2.6758,2.6773,2.6772,2.6771,2.677,2.6885,2.6889,2.6893,0,0,0,0,0,0,0,0,0,0,0,0,0,2.6448,2.6452,2.6645,2.6646,2.6647,2.6755,2.6757,2.6758,2.6773,2.6772,2.6771,2.6769,2.6883,2.6888,2.6893,0,0,0,0,0,0,0,0,0,0,0,0,0,2.6544,2.6453,2.6644,2.6668,2.6671,2.6755,2.6757,2.6759,2.6773,2.6772,2.677,2.6769,2.6882,2.6888,2.6894,2.6962,0,0,2.6912,2.6915,0,0,0,0,0,0,0,0,2.6538,2.6551,2.6663,2.6666,2.667,2.6749,2.673,2.6827,2.6774,2.6735,2.677,2.6768,2.6841,2.685,2.6874,2.6968,2.6973,2.6913,2.6916,2.6919,2.6921,0,0,0,0,0,0,0,2.6532,2.6546,2.6689,2.6665,2.6669,2.6674,2.6685,2.6748,2.6795,2.6738,2.6739,2.6752,2.6842,2.6869,2.6877,2.6974,2.6912,2.6918,2.6921,2.6924,2.7131,2.7133,0,0,0,0,0,0,2.652,2.6541,2.6685,2.6692,2.6599,2.6678,2.6692,2.6725,2.6795,2.6804,2.6753,2.6752,2.6859,2.687,2.6881,2.6967,2.6919,2.6924,2.6928,2.7129,2.7131,2.7133,0,0,0,0,0,0,2.6516,2.6533,2.6681,2.6617,2.6636,2.6683,2.6721,2.6728,2.6754,2.6806,2.6815,2.6771,2.6858,2.6873,2.6942,2.6971,2.6927,2.6933,2.7127,2.713,2.7132,2.7138,0,0,0,0,0,0,2.651,2.6531,2.6557,2.6617,2.6639,2.6739,2.6723,2.6731,2.6764,2.6764,2.6825,2.6834,2.6858,2.6933,2.6948,2.6978,2.6937,2.7124,2.7128,2.7131,2.7135,2.714,2.7145,0,0,0,0,0,2.6503,2.6555,2.6559,2.6576,2.6672,2.674,2.6753,2.678,2.6767,2.6794,2.6827,2.6832,2.6966,2.694,2.6957,2.699,2.7123,2.7127,2.7131,2.7133,2.7139,2.7144,0,0,0,0,0,0,2.6497,2.6563,2.6568,2.664,2.6685,2.6743,2.6777,2.6785,2.6835,2.6833,2.6864,2.6878,2.6946,2.6975,2.6945,2.706,2.7043,2.7051,2.7038,2.7045,2.705,2.7041,2.6942,0,0,0,0,0,2.6504,2.6553,2.6608,2.6667,2.6689,2.6729,2.676,2.6777,2.6824,2.6843,2.6882,2.6928,2.6981,2.7015,2.7066,2.714,2.7154,2.7171,2.7175,2.7179,2.7185,2.7227,2.7235,2.7147,2.7147,2.7147,0,0,2.6519,2.6561,2.659,2.6667,2.6703,2.6754,2.6745,2.6799,2.6837,2.6852,2.6919,2.695,2.7004,2.7076,2.7109,2.7102,2.7213,2.7185,2.7187,2.7191,2.7232,2.7241,2.7248,2.715,2.7149,2.7149,0,0,2.6572,2.6609,2.6662,2.6699,2.6754,2.6781,2.6793,2.6851,2.6872,2.694,2.6952,2.6999,2.7088,2.7127,2.7158,2.7227,2.7233,2.7243,2.7268,2.7308,2.7315,2.7321,2.7346,2.7354,2.7249,2.7249,2.7249,0,2.6584,2.666,2.6688,2.6742,2.6775,2.6791,2.6845,2.6879,2.6949,2.6972,2.6963,2.7076,2.7114,2.7195,2.7212,2.7237,2.7253,2.7235,2.7312,2.7318,2.7325,2.7348,2.7358,2.725,2.725,2.725,2.725,0,2.6672,2.6725,2.6761,2.6827,2.6865,2.6919,2.6955,2.699,2.7004,2.7033,2.7103,2.7149,2.721,2.723,2.7245,2.7314,2.7308,2.7305,2.7288,2.7333,2.7356,2.7366,2.7251,2.7251,2.7251,2.725,0,0,2.6723,2.6805,2.6817,2.6848,2.6911,2.6953,2.7008,2.7067,2.7097,2.7145,2.7192,2.7268,2.7266,2.7301,2.732,2.7356,2.7408,2.7349,2.7351,2.7358,2.7488,2.7489,2.7499,2.7413,2.7415,2.7417,2.7483,0,2.6783,2.688,2.6907,2.699,2.704,2.7056,2.7104,2.7148,2.7177,2.7224,2.7255,2.7309,2.7302,2.7323,2.7359,2.7394,2.7435,2.739,2.7458,2.746,2.7442,2.7511,2.7513,2.7574,2.7493,2.7494,2.7495,0,2.6866,2.6915,2.7002,2.7059,2.7081,2.7124,2.7181,2.7225,2.7277,2.7295,2.7335,2.7351,2.741,2.7391,2.7473,2.7441,2.7471,2.7493,2.7496,2.7502,2.7479,2.7519,2.7594,2.7602,2.751,2.7509,2.7508,0,2.6893,2.6982,2.7046,2.7071,2.714,2.7169,2.7199,2.7249,2.7283,2.7334,2.7356,2.7413,2.7444,2.7488,2.752,2.7503,2.7599,2.7582,2.7616,2.7615,2.7635,2.7633,2.7714,2.7655,2.7655,2.7655,2.7654,0,2.6957,2.701,2.7059,2.7098,2.7158,2.719,2.7249,2.7279,2.7324,2.737,2.7388,2.7431,2.747,2.7519,2.7544,2.7608,2.7622,2.7639,2.7645,2.7637,2.7635,2.7656,2.7652,2.7657,2.7657,2.7656,2.7656,0,2.6998,2.7033,2.7103,2.7163,2.7179,2.7221,2.7272,2.7311,2.734,2.7399,2.7414,2.7461,2.7519,2.7555,2.7629,2.7646,2.7716,2.7721,2.7699,2.7701,2.7733,2.7729,2.783,2.7845,2.7776,2.7777,2.7777,0,2.7036,2.7077,2.714,2.7172,2.7202,2.7254,2.7289,2.7322,2.7358,2.742,2.7452,2.7512,2.7561,2.7653,2.7694,2.7751,2.7757,2.7788,2.7766,2.7756,2.7757,2.7754,2.7758,2.7792,2.7792,2.7793,2.7793,0,2.7099,2.7115,2.7164,2.722,2.7261,2.7307,2.7353,2.7379,2.742,2.746,2.7519,2.7557,2.7633,2.7692,2.7753,2.7785,2.7796,2.78,2.7811,2.7803,2.7788,2.7796,2.7708,2.7798,2.7797,2.7797,2.7797,2.7796,2.714,2.7177,2.7227,2.7282,2.732,2.7363,2.7403,2.7437,2.7487,2.7551,2.7568,2.7631,2.7682,2.7765,2.7799,2.7849,2.7844,2.786,2.7863,2.7867,2.7867,2.7781,2.786,2.786,2.786,2.786,2.786,0,2.7204,2.7237,2.7287,2.7351,2.7394,2.7401,2.7453,2.7489,2.7543,2.759,2.7638,2.7707,2.7765,2.7811,2.787,2.7901,2.7908,2.7916,2.7913,2.7921,2.7868,2.7852,2.7909,2.7909,2.7909,2.7909,2.7909,2.7909,2.7242,2.7305,2.7327,2.741,2.7444,2.7505,2.7534,2.7573,2.7611,2.7687,2.7735,2.7764,2.7811,2.7874,2.7928,2.794,2.7961,2.7967,2.798,2.793,2.7924,2.7919,2.7905,2.7972,2.7972,2.8029,2.803,2.803]}]]